Weather History for Crestview, FL

Change the Weather History Date:

Sunday, November 4, 2012

  Actual Average Record
Temperature  
Mean Temperature 66 °F -  
Max Temperature 82 °F 74 °F 84 °F (1975)
Min Temperature 53 °F 48 °F 27 °F (1999)
Cooling Degree Days 2    
Growing Degree Days 16 (Base 50)    
Moisture  
Dew Point 56 °F    
Average Humidity 83    
Maximum Humidity 100    
Minimum Humidity 40    
Precipitation  
Precipitation 0.00 in - - ()
Sea Level Pressure  
Sea Level Pressure 30.07 in    
Wind  
Wind Speed 2 mph (NW)    
Max Wind Speed 13 mph    
Max Gust Speed 20 mph    
Visibility 5 miles    
Events Fog    
Averages and records for this station are not official NWS values.
T = Trace of Precipitation, MM = Missing Value Source: NWS Daily Summary

Daily Weather History Graph

Daily Weather History Graph

Search for Another Location

Airport:

Trip Planner

Search our weather history database for the weather conditions in past years. The results will help you decide how hot, cold, wet, or windy it might be!

Date:

Astronomy

Nov. 04, 2012 Rise Set
Actual Time 6:03 AM CST 4:55 PM CST
Civil Twilight 5:38 AM CST 5:20 PM CST
Nautical Twilight 5:10 AM CST 5:48 PM CST
Astronomical Twilight 4:41 AM CST 6:17 PM CST
Moon 9:35 PM CST (11/4) 10:42 AM CST (11/4)
Length of Visible Light 11h 41m
Length of Day
10h 51m
Waning Gibbous, 72% of the Moon is Illuminated
Nov 4
Waning Gibbous
Nov 6
Last Quarter
Nov 13
New
Nov 20
First Quarter
Nov 28
Full

Hourly Weather History & Observations

Time (CST) Temp. Heat Index Dew Point Humidity Pressure Visibility Wind Dir Wind Speed Gust Speed Precip Events Conditions
12:53 AM 57.9 °F - 55.9 °F 93% 30.08 in 7.0 mi Calm Calm - N/A   Clear
1:18 AM 57.2 °F - 55.4 °F 94% 30.09 in 2.5 mi Calm Calm - N/A   Partly Cloudy
1:21 AM 57.2 °F - 55.4 °F 94% 30.09 in 1.0 mi Calm Calm - N/A   Mist
1:32 AM 55.4 °F - 53.6 °F 94% 30.09 in 2.5 mi Calm Calm - N/A   Partly Cloudy
1:39 AM 57.2 °F - 53.6 °F 88% 30.09 in 6.0 mi Calm Calm - N/A   Partly Cloudy
1:53 AM 55.9 °F - 54.0 °F 93% 30.08 in 5.0 mi Calm Calm - N/A   Clear
1:05 AM 55.4 °F - 53.6 °F 94% 30.09 in 4.0 mi Calm Calm - N/A   Partly Cloudy
1:17 AM 55.4 °F - 53.6 °F 94% 30.09 in 5.0 mi Calm Calm - N/A   Mostly Cloudy
1:28 AM 55.4 °F - 53.6 °F 94% 30.09 in 1.5 mi Calm Calm - N/A   Overcast
1:30 AM 55.4 °F - 53.6 °F 94% 30.09 in 0.5 mi Calm Calm - N/A Fog Fog
1:53 AM 54.0 °F - 53.1 °F 97% 30.08 in 0.2 mi Calm Calm - N/A Fog Fog
2:08 AM 55.4 °F - 53.6 °F 94% 30.09 in 1.0 mi Calm Calm - N/A   Mist
2:15 AM 53.6 °F - 53.6 °F 100% 30.08 in 0.5 mi Calm Calm - N/A Fog Fog
2:22 AM 53.6 °F - 53.6 °F 100% 30.08 in 1.0 mi Calm Calm - N/A   Mist
2:25 AM 53.6 °F - 53.6 °F 100% 30.08 in 2.5 mi Calm Calm - N/A   Partly Cloudy
2:32 AM 53.6 °F - 53.6 °F 100% 30.08 in 4.0 mi Calm Calm - N/A   Partly Cloudy
2:53 AM 53.1 °F - 52.0 °F 96% 30.07 in 4.0 mi Calm Calm - N/A   Clear
3:02 AM 53.6 °F - 51.8 °F 94% 30.08 in 4.0 mi Calm Calm - N/A   Scattered Clouds
3:10 AM 53.6 °F - 51.8 °F 94% 30.08 in 5.0 mi Calm Calm - N/A   Mostly Cloudy
3:25 AM 53.6 °F - 51.8 °F 94% 30.07 in 1.8 mi Calm Calm - N/A   Overcast
3:29 AM 53.6 °F - 51.8 °F 94% 30.07 in 0.8 mi Calm Calm - N/A   Mist
3:36 AM 53.6 °F - 51.8 °F 94% 30.07 in 0.2 mi Calm Calm - N/A Fog Fog
3:53 AM 54.0 °F - 53.1 °F 97% 30.06 in 0.2 mi Calm Calm - N/A Fog Fog
4:53 AM 55.9 °F - 55.0 °F 97% 30.07 in 0.2 mi Calm Calm - N/A Fog Fog
5:53 AM 57.0 °F - 55.9 °F 96% 30.09 in 0.2 mi Calm Calm - N/A Fog Fog
6:53 AM 59.0 °F - 57.9 °F 96% 30.11 in 0.2 mi Calm Calm - N/A Fog Fog
7:13 AM 62.6 °F - 60.8 °F 94% 30.12 in 1.2 mi Calm Calm - N/A   Mostly Cloudy
7:16 AM 62.6 °F - 60.8 °F 94% 30.12 in 3.0 mi Calm Calm - N/A   Mostly Cloudy
7:25 AM 64.4 °F - 62.6 °F 94% 30.11 in 7.0 mi Variable 4.6 mph - N/A   Scattered Clouds
7:53 AM 68.0 °F - 63.0 °F 84% 30.11 in 10.0 mi WNW 9.2 mph - N/A   Clear
8:53 AM 72.0 °F - 63.0 °F 73% 30.10 in 10.0 mi NNW 8.1 mph - N/A   Clear
9:53 AM 75.9 °F - 63.0 °F 64% 30.09 in 10.0 mi NNW 12.7 mph - N/A   Clear
10:53 AM 79.0 °F - 62.1 °F 56% 30.08 in 10.0 mi WNW 10.4 mph 19.6 mph N/A   Clear
11:53 AM 80.1 °F 80.9 °F 60.1 °F 50% 30.05 in 10.0 mi NW 10.4 mph 17.3 mph N/A   Partly Cloudy
12:53 PM 80.1 °F 80.7 °F 59.0 °F 48% 30.03 in 10.0 mi NW 6.9 mph - N/A   Partly Cloudy
1:53 PM 80.1 °F 80.4 °F 57.0 °F 45% 30.01 in 10.0 mi WSW 10.4 mph - N/A   Partly Cloudy
2:53 PM 80.1 °F 80.0 °F 54.0 °F 40% 30.00 in 10.0 mi West 8.1 mph - N/A   Clear
3:53 PM 78.1 °F - 55.0 °F 45% 30.01 in 10.0 mi WNW 6.9 mph - N/A   Partly Cloudy
4:53 PM 73.9 °F - 55.0 °F 52% 30.01 in 10.0 mi NW 10.4 mph - N/A   Partly Cloudy
5:53 PM 70.0 °F - 55.9 °F 61% 30.04 in 10.0 mi NW 6.9 mph - N/A   Clear
6:53 PM 68.0 °F - 57.0 °F 68% 30.04 in 10.0 mi NW 5.8 mph - N/A   Clear
7:53 PM 66.0 °F - 57.0 °F 73% 30.04 in 10.0 mi NW 8.1 mph - N/A   Clear
8:53 PM 63.0 °F - 55.9 °F 78% 30.05 in 10.0 mi NNW 5.8 mph - N/A   Clear
9:53 PM 62.1 °F - 55.9 °F 80% 30.06 in 10.0 mi Calm Calm - N/A   Clear
10:53 PM 60.1 °F - 55.0 °F 83% 30.06 in 10.0 mi North 3.5 mph - N/A   Clear